[[{"header":{"parameterUnit":"m.s-1","parameterCategory":1,"la1":30.2991,"la2":30.254,"lo1":-89.0895,"lo2":-89.0444,"dy":0.0017,"dx":0.0017,"nx":28,"ny":28,"refTime":"2024-04-19T09:00:00:Z","depth":0,"parameterNumber":2,"parameterNumberName":"U-component_of_WINDS"},"data":[0,0,0,0,0,0,0,0,0,0,0,0,0,0,0,0,0,0,0,0,0,0,0,0,0,0,0,0,0,0,0,0,0,0,0,0,0,0,0,0,0,0,0,0,0,0,0,0,0,0,0,0,0,0,0,0,0,0,-1.3922,-1.3922,0,-1.3907,-1.3907,-1.3907,-1.3869,-1.3868,-1.3868,-1.3867,-1.3851,-1.3852,-1.3852,0,0,0,0,0,0,0,0,0,0,0,0,0,-1.392,-1.392,-1.3923,-1.3922,-1.3922,-1.3907,-1.3907,-1.3907,-1.3869,-1.3868,-1.3867,-1.3866,-1.3851,-1.3852,-1.3852,0,0,0,0,0,0,0,0,0,0,0,0,0,-1.3915,-1.392,-1.3923,-1.3902,-1.3899,-1.3908,-1.3907,-1.3907,-1.3869,-1.3868,-1.3867,-1.3866,-1.3851,-1.3852,-1.3852,-1.388,0,0,-1.3854,-1.3854,0,0,0,0,0,0,0,0,-1.3915,-1.3915,-1.3905,-1.3903,-1.3901,-1.3889,-1.3901,-1.3898,-1.387,-1.3881,-1.3867,-1.3865,-1.3865,-1.3864,-1.3864,-1.3879,-1.3878,-1.3854,-1.3854,-1.3854,-1.3855,0,0,0,0,0,0,0,-1.3915,-1.3915,-1.3917,-1.3905,-1.3902,-1.3893,-1.3891,-1.39,-1.388,-1.388,-1.3877,-1.3876,-1.3864,-1.3864,-1.3863,-1.3878,-1.3854,-1.3854,-1.3855,-1.3855,-1.3916,-1.3917,0,0,0,0,0,0,-1.3919,-1.3916,-1.3917,-1.3916,-1.3905,-1.3894,-1.3892,-1.3894,-1.388,-1.3876,-1.3877,-1.3874,-1.3863,-1.3863,-1.3863,-1.3894,-1.3854,-1.3855,-1.3855,-1.3914,-1.3916,-1.3917,0,0,0,0,0,0,-1.3919,-1.3919,-1.3918,-1.3915,-1.3914,-1.3896,-1.3898,-1.3894,-1.3894,-1.3877,-1.3874,-1.388,-1.3862,-1.3862,-1.3876,-1.3893,-1.3855,-1.3856,-1.3913,-1.3915,-1.3917,-1.3957,0,0,0,0,0,0,-1.3919,-1.3919,-1.3929,-1.3916,-1.3915,-1.3931,-1.3899,-1.3895,-1.3895,-1.3891,-1.388,-1.3877,-1.3861,-1.3875,-1.3876,-1.3893,-1.3856,-1.3911,-1.3914,-1.3916,-1.3954,-1.3961,-1.3966,0,0,0,0,0,-1.3919,-1.3941,-1.393,-1.393,-1.3926,-1.3932,-1.3931,-1.3913,-1.3897,-1.3907,-1.3896,-1.3877,-1.3891,-1.3877,-1.3878,-1.3895,-1.391,-1.3913,-1.3916,-1.3952,-1.3959,-1.3966,0,0,0,0,0,0,-1.3957,-1.3939,-1.3926,-1.3945,-1.394,-1.3925,-1.3937,-1.3921,-1.3921,-1.3918,-1.3896,-1.3893,-1.391,-1.3904,-1.3889,-1.3922,-1.3898,-1.3901,-1.3925,-1.3932,-1.3937,-1.3938,-1.3856,0,0,0,0,0,-1.3967,-1.3973,-1.3957,-1.3975,-1.3973,-1.3956,-1.3958,-1.3944,-1.3939,-1.3936,-1.3927,-1.3922,-1.3926,-1.3928,-1.3931,-1.3954,-1.3951,-1.3966,-1.3972,-1.3977,-1.398,-1.3992,-1.3999,-1.3927,-1.3927,-1.3927,0,0,-1.3989,-1.398,-1.3985,-1.3982,-1.3977,-1.3984,-1.3954,-1.3963,-1.3968,-1.3938,-1.395,-1.3943,-1.3937,-1.3956,-1.3964,-1.3951,-1.3999,-1.398,-1.3984,-1.3985,-1.3996,-1.4003,-1.4009,-1.3929,-1.3929,-1.3928,0,0,-1.4032,-1.4026,-1.404,-1.4036,-1.4029,-1.4017,-1.4021,-1.4009,-1.4003,-1.4016,-1.3994,-1.4,-1.4006,-1.4002,-1.4002,-1.4045,-1.4028,-1.4047,-1.4076,-1.4089,-1.4094,-1.4099,-1.4115,-1.4121,-1.405,-1.405,-1.405,0,-1.406,-1.4069,-1.405,-1.406,-1.406,-1.4033,-1.4048,-1.4045,-1.4039,-1.404,-1.4026,-1.4035,-1.4028,-1.4046,-1.4057,-1.4057,-1.4061,-1.4048,-1.4095,-1.41,-1.4104,-1.4119,-1.4125,-1.4052,-1.4052,-1.4052,-1.4052,0,-1.4104,-1.4111,-1.4123,-1.4119,-1.412,-1.4133,-1.4116,-1.412,-1.4107,-1.4097,-1.4111,-1.4102,-1.4103,-1.4106,-1.4094,-1.4123,-1.4116,-1.4099,-1.4074,-1.4114,-1.4127,-1.4133,-1.4056,-1.4055,-1.4054,-1.4054,0,0,-1.4169,-1.4155,-1.416,-1.4158,-1.4148,-1.4154,-1.4166,-1.4166,-1.417,-1.4168,-1.4177,-1.4184,-1.4169,-1.4168,-1.4155,-1.4166,-1.4202,-1.4148,-1.4147,-1.4158,-1.4235,-1.4247,-1.4254,-1.4191,-1.4192,-1.4193,-1.4235,0,-1.421,-1.4229,-1.4213,-1.4235,-1.4241,-1.4217,-1.4228,-1.4224,-1.4215,-1.422,-1.4211,-1.4216,-1.4195,-1.4195,-1.4205,-1.4195,-1.4217,-1.4192,-1.42,-1.42,-1.4202,-1.4261,-1.4274,-1.4315,-1.4241,-1.4241,-1.4242,0,-1.426,-1.426,-1.4283,-1.4273,-1.4275,-1.4285,-1.4285,-1.429,-1.4285,-1.4278,-1.4278,-1.4262,-1.4274,-1.425,-1.4266,-1.425,-1.4252,-1.4249,-1.425,-1.4249,-1.4223,-1.4263,-1.4327,-1.4334,-1.425,-1.425,-1.4249,0,-1.4306,-1.4311,-1.4326,-1.4325,-1.4314,-1.4322,-1.4317,-1.4312,-1.4314,-1.4314,-1.4315,-1.4317,-1.4318,-1.432,-1.4305,-1.4289,-1.4323,-1.4298,-1.4318,-1.4319,-1.4326,-1.4326,-1.4392,-1.4328,-1.4328,-1.4328,-1.4328,0,-1.4353,-1.4368,-1.4346,-1.4355,-1.4372,-1.4354,-1.4371,-1.4364,-1.4359,-1.4367,-1.4347,-1.4355,-1.4335,-1.4341,-1.433,-1.4345,-1.4346,-1.4341,-1.4337,-1.4342,-1.4343,-1.4343,-1.434,-1.4329,-1.4329,-1.4329,-1.4328,0,-1.4406,-1.4393,-1.4407,-1.4396,-1.4394,-1.4406,-1.4397,-1.4405,-1.4396,-1.4406,-1.4408,-1.4393,-1.44,-1.4385,-1.4389,-1.4382,-1.4404,-1.4396,-1.4405,-1.4403,-1.4424,-1.4422,-1.4492,-1.4501,-1.4432,-1.4432,-1.4433,0,-1.4437,-1.4448,-1.4439,-1.4442,-1.4439,-1.4446,-1.4448,-1.4431,-1.4434,-1.443,-1.4439,-1.4444,-1.4446,-1.4457,-1.4447,-1.4451,-1.4443,-1.4468,-1.4443,-1.4448,-1.4443,-1.4443,-1.4444,-1.4472,-1.4473,-1.4474,-1.4474,0,-1.4493,-1.4486,-1.449,-1.4492,-1.4495,-1.4495,-1.4494,-1.4499,-1.4481,-1.4485,-1.4491,-1.4494,-1.4498,-1.4503,-1.4504,-1.4501,-1.4485,-1.4482,-1.4487,-1.4492,-1.4497,-1.4495,-1.4419,-1.4481,-1.448,-1.448,-1.4479,-1.4479,-1.4537,-1.4546,-1.4541,-1.4546,-1.4543,-1.4543,-1.4551,-1.4543,-1.4547,-1.455,-1.454,-1.4548,-1.4545,-1.4545,-1.4543,-1.455,-1.4539,-1.4545,-1.4547,-1.4549,-1.4553,-1.4496,-1.455,-1.455,-1.455,-1.4549,-1.4549,0,-1.4592,-1.4588,-1.4593,-1.4592,-1.4596,-1.4581,-1.458,-1.4585,-1.4593,-1.459,-1.4594,-1.4601,-1.4607,-1.4598,-1.4601,-1.4609,-1.4602,-1.461,-1.4609,-1.4609,-1.4562,-1.4558,-1.4616,-1.4616,-1.4616,-1.4616,-1.4616,-1.4616,-1.4621,-1.4636,-1.4629,-1.4643,-1.4638,-1.4646,-1.4647,-1.4647,-1.4645,-1.4655,-1.4659,-1.4653,-1.4649,-1.4652,-1.4657,-1.4654,-1.4656,-1.4668,-1.4662,-1.4619,-1.4612,-1.4606,-1.4602,-1.4668,-1.4668,-1.4709,-1.4709,-1.4709]},{"header":{"parameterUnit":"m.s-1","parameterCategory":1,"la1":30.2991,"la2":30.254,"lo1":-89.0895,"lo2":-89.0444,"dy":0.0017,"dx":0.0017,"nx":28,"ny":28,"refTime":"2024-04-19T09:00:00:Z","depth":0,"parameterNumber":3,"parameterNumberName":"V-component_of_WINDS"},"data":[0,0,0,0,0,0,0,0,0,0,0,0,0,0,0,0,0,0,0,0,0,0,0,0,0,0,0,0,0,0,0,0,0,0,0,0,0,0,0,0,0,0,0,0,0,0,0,0,0,0,0,0,0,0,0,0,0,0,3.2329,3.2329,0,3.2321,3.2321,3.2321,3.2312,3.2312,3.2312,3.2312,3.2302,3.2302,3.2302,0,0,0,0,0,0,0,0,0,0,0,0,0,3.2335,3.2335,3.2329,3.2329,3.2329,3.2321,3.2321,3.2321,3.2312,3.2312,3.2312,3.2312,3.2302,3.2302,3.2302,0,0,0,0,0,0,0,0,0,0,0,0,0,3.233,3.2335,3.2329,3.2323,3.2323,3.2321,3.2321,3.2321,3.2312,3.2312,3.2312,3.2312,3.2303,3.2302,3.2302,3.2305,0,0,3.2301,3.2301,0,0,0,0,0,0,0,0,3.2331,3.233,3.2324,3.2324,3.2323,3.2317,3.232,3.2315,3.2312,3.2316,3.2312,3.2312,3.2307,3.2307,3.2306,3.2304,3.2304,3.2301,3.2301,3.2301,3.2301,0,0,0,0,0,0,0,3.2331,3.233,3.2326,3.2324,3.2324,3.2321,3.232,3.2319,3.2313,3.2316,3.2315,3.2315,3.2307,3.2306,3.2305,3.2304,3.2301,3.2301,3.2301,3.2301,3.2304,3.2304,0,0,0,0,0,0,3.2332,3.2331,3.2326,3.2325,3.2327,3.2321,3.232,3.2319,3.2313,3.2312,3.2315,3.2314,3.2306,3.2306,3.2305,3.2308,3.2301,3.2301,3.2301,3.2304,3.2304,3.2304,0,0,0,0,0,0,3.2332,3.2332,3.2326,3.2328,3.2327,3.2321,3.2321,3.2319,3.2318,3.2312,3.2311,3.2315,3.2306,3.2305,3.2305,3.2307,3.2301,3.2301,3.2304,3.2304,3.2304,3.2313,0,0,0,0,0,0,3.2333,3.2332,3.2333,3.2328,3.2327,3.2327,3.2321,3.2319,3.2318,3.2317,3.2312,3.2311,3.2306,3.2305,3.2305,3.2307,3.2301,3.2303,3.2304,3.2304,3.2312,3.2314,3.2314,0,0,0,0,0,3.2333,3.2335,3.2333,3.2333,3.2328,3.2327,3.2326,3.2321,3.2318,3.2319,3.2315,3.2311,3.2307,3.2305,3.2305,3.2307,3.2303,3.2304,3.2304,3.2312,3.2313,3.2314,0,0,0,0,0,0,3.234,3.2335,3.2332,3.2333,3.2331,3.2325,3.2326,3.2323,3.232,3.232,3.2313,3.2312,3.2313,3.231,3.2308,3.2309,3.2305,3.2305,3.2311,3.2312,3.2313,3.2313,3.23,0,0,0,0,0,3.2342,3.2342,3.2337,3.2338,3.2337,3.2332,3.2331,3.2328,3.2324,3.2323,3.2319,3.2316,3.2314,3.2313,3.2311,3.2312,3.2311,3.2313,3.2314,3.2315,3.2315,3.2316,3.2317,3.2306,3.2306,3.2306,0,0,3.2346,3.2343,3.2342,3.2339,3.2337,3.2337,3.2331,3.233,3.233,3.2323,3.2322,3.232,3.2316,3.2316,3.2316,3.2314,3.2318,3.2316,3.2317,3.2316,3.2317,3.2318,3.2319,3.2306,3.2306,3.2306,0,0,3.2352,3.235,3.2351,3.2348,3.2345,3.2342,3.2342,3.2338,3.2336,3.2335,3.233,3.2329,3.2326,3.2324,3.2322,3.2328,3.2324,3.2328,3.2333,3.2333,3.2334,3.2335,3.2337,3.2338,3.2328,3.2328,3.2328,0,3.2356,3.2356,3.2351,3.2351,3.235,3.2345,3.2346,3.2344,3.234,3.2339,3.2337,3.2333,3.233,3.233,3.2332,3.233,3.233,3.2328,3.2335,3.2335,3.2336,3.2338,3.2339,3.2329,3.2329,3.2328,3.2328,0,3.2362,3.2361,3.2362,3.236,3.2359,3.2359,3.2355,3.2354,3.2351,3.2348,3.2348,3.2344,3.2341,3.2341,3.2338,3.2341,3.2339,3.2336,3.2331,3.2338,3.2339,3.234,3.2329,3.2329,3.2329,3.2329,0,0,3.2371,3.2367,3.2367,3.2366,3.2362,3.2362,3.2362,3.236,3.236,3.2357,3.2357,3.2355,3.2352,3.235,3.2347,3.2348,3.2353,3.2344,3.2344,3.2346,3.2356,3.2358,3.2359,3.235,3.235,3.235,3.2356,0,3.2377,3.2377,3.2374,3.2375,3.2375,3.237,3.237,3.2368,3.2365,3.2364,3.2361,3.236,3.2356,3.2355,3.2356,3.2352,3.2355,3.2352,3.235,3.235,3.235,3.236,3.2362,3.2367,3.2357,3.2357,3.2357,0,3.2383,3.2382,3.2383,3.238,3.2379,3.238,3.2378,3.2377,3.2374,3.2373,3.2371,3.2367,3.2367,3.2363,3.2363,3.2361,3.236,3.2358,3.2358,3.2358,3.2353,3.2359,3.2369,3.237,3.2358,3.2358,3.2358,0,3.239,3.2388,3.2389,3.2388,3.2384,3.2385,3.2383,3.238,3.2379,3.2378,3.2377,3.2375,3.2374,3.2373,3.2368,3.2366,3.2369,3.2364,3.2367,3.2367,3.2367,3.2367,3.2377,3.2367,3.2367,3.2367,3.2367,0,3.2396,3.2397,3.2392,3.2393,3.2394,3.239,3.2391,3.2389,3.2386,3.2386,3.2382,3.2382,3.2376,3.2375,3.2372,3.2372,3.2372,3.237,3.2369,3.237,3.237,3.2369,3.2369,3.2367,3.2367,3.2367,3.2367,0,3.2404,3.2401,3.2401,3.2398,3.2397,3.2398,3.2395,3.2395,3.2392,3.2392,3.2392,3.2388,3.2386,3.2382,3.238,3.2378,3.2379,3.2377,3.238,3.2379,3.2382,3.2382,3.2391,3.2392,3.2382,3.2382,3.2382,0,3.2408,3.2408,3.2405,3.2405,3.2404,3.2403,3.2403,3.2399,3.2398,3.2396,3.2396,3.2395,3.2393,3.2392,3.2388,3.2387,3.2385,3.2388,3.2384,3.2386,3.2384,3.2384,3.2384,3.2389,3.2389,3.2389,3.2389,0,3.2415,3.2414,3.2413,3.2412,3.2411,3.241,3.2409,3.2409,3.2404,3.2404,3.2403,3.2402,3.24,3.2399,3.2397,3.2395,3.2391,3.239,3.2391,3.2392,3.2393,3.2392,3.2382,3.239,3.239,3.239,3.239,3.239,3.2421,3.2421,3.2419,3.2419,3.2418,3.2416,3.2417,3.2414,3.2414,3.2412,3.241,3.2409,3.2407,3.2403,3.2402,3.2401,3.2399,3.24,3.24,3.24,3.24,3.2394,3.2401,3.2401,3.2401,3.2401,3.2401,0,3.2428,3.2427,3.2426,3.2425,3.2424,3.2422,3.242,3.242,3.2419,3.2418,3.2417,3.2416,3.2414,3.2411,3.241,3.241,3.2408,3.2409,3.2409,3.2409,3.2402,3.2402,3.2411,3.2411,3.2411,3.2411,3.2411,3.2411,3.2432,3.2432,3.2431,3.2431,3.2429,3.2429,3.2428,3.2427,3.2426,3.2425,3.2424,3.2423,3.242,3.2418,3.2417,3.2416,3.2416,3.2418,3.2416,3.241,3.2409,3.2408,3.2408,3.2418,3.2418,3.2423,3.2423,3.2423]}]]